owner,sensor,date,latitude,longitude,vertical_datum,wind_speed,wind_to_direction,wind_speed_of_gust,qcFlag 
TCOON,ioos:station:TCOON:068:1,2010-07-01T00:00:00Z,27.2970,-97.4049,0.0,14.5,32.0,17.8,'11111222,11111222,11111222' 
TCOON,ioos:station:TCOON:068:1,2010-07-01T01:00:00Z,27.2970,-97.4049,0.0,12.2,29.0,15.9,'11111222,11111222,11111222' 
TCOON,ioos:station:TCOON:068:1,2010-07-01T03:00:00Z,27.2970,-97.4049,0.0,16.3,47.0,18.7,'11111222,11111222,11111222' 
TCOON,ioos:station:TCOON:068:1,2010-07-01T04:00:00Z,27.2970,-97.4049,0.0,14.0,64.0,18.1,'11111222,11111222,11111222' 
TCOON,ioos:station:TCOON:068:1,2010-07-01T05:00:00Z,27.2970,-97.4049,0.0,12.8,68.0,40.0,'11111222,11111222,11111222' 
TCOON,ioos:station:TCOON:068:1,2010-07-01T06:00:00Z,27.2970,-97.4049,0.0,11.8,71.0,13.8,'11111222,11111222,11111222' 
TCOON,ioos:station:TCOON:068:1,2010-07-01T07:00:00Z,27.2970,-97.4049,0.0,12.5,74.0,15.0,'11111222,11111222,11111222' 
TCOON,ioos:station:TCOON:068:1,2010-07-01T08:00:00Z,27.2970,-97.4049,0.0,11.2,75.0,14.2,'11111222,11111222,11111222' 
TCOON,ioos:station:TCOON:068:1,2010-07-01T09:00:00Z,27.2970,-97.4049,0.0,11.9,69.0,14.5,'11111222,11111222,11111222' 
TCOON,ioos:station:TCOON:068:1,2010-07-01T10:00:00Z,27.2970,-97.4049,0.0,10.8,71.0,12.6,'11111222,11111222,11111222' 
TCOON,ioos:station:TCOON:068:1,2010-07-01T11:00:00Z,27.2970,-97.4049,0.0,10.8,76.0,12.9,'11111222,11111222,11111222' 
TCOON,ioos:station:TCOON:068:1,2010-07-01T12:00:00Z,27.2970,-97.4049,0.0,10.3,89.0,12.7,'11111222,11111222,11111222' 
TCOON,ioos:station:TCOON:068:1,2010-07-01T13:00:00Z,27.2970,-97.4049,0.0,10.0,99.0,12.5,'11111222,11111222,11111222' 
TCOON,ioos:station:TCOON:068:1,2010-07-01T14:00:00Z,27.2970,-97.4049,0.0,11.6,96.0,13.6,'11111222,11111222,11111222' 
TCOON,ioos:station:TCOON:068:1,2010-07-01T15:00:00Z,27.2970,-97.4049,0.0,10.6,88.0,11.9,'11111222,11111222,11111222' 
TCOON,ioos:station:TCOON:068:1,2010-07-01T16:00:00Z,27.2970,-97.4049,0.0,8.8,96.0,10.3,'11111222,11111222,11111222' 
TCOON,ioos:station:TCOON:068:1,2010-07-01T17:00:00Z,27.2970,-97.4049,0.0,8.6,86.0,10.5,'11111222,11111222,11111222' 
TCOON,ioos:station:TCOON:068:1,2010-07-01T18:00:00Z,27.2970,-97.4049,0.0,8.2,85.0,9.4,'11111222,11111222,11111222' 
TCOON,ioos:station:TCOON:068:1,2010-07-01T19:00:00Z,27.2970,-97.4049,0.0,8.2,70.0,9.9,'11111222,11111222,11111222' 
TCOON,ioos:station:TCOON:068:1,2010-07-01T20:00:00Z,27.2970,-97.4049,0.0,9.6,74.0,11.4,'11111222,11111222,11111222' 
TCOON,ioos:station:TCOON:068:1,2010-07-01T21:00:00Z,27.2970,-97.4049,0.0,10.3,79.0,11.8,'11111222,11111222,11111222' 
TCOON,ioos:station:TCOON:068:1,2010-07-01T22:00:00Z,27.2970,-97.4049,0.0,9.4,80.0,11.1,'11111222,11111222,11111222' 
TCOON,ioos:station:TCOON:068:1,2010-07-01T23:00:00Z,27.2970,-97.4049,0.0,10.4,89.0,12.0,'11111222,11111222,11111222' 
TCOON,ioos:station:TCOON:068:1,2010-07-02T00:00:00Z,27.2970,-97.4049,0.0,10.6,97.0,99.0,'11111222,11111222,11144222' 
TCOON,ioos:station:TCOON:068:1,2010-07-02T01:00:00Z,27.2970,-97.4049,0.0,9.8,96.0,11.8,'11111222,11111222,11111222' 
TCOON,ioos:station:TCOON:068:1,2010-07-02T02:00:00Z,27.2970,-97.4049,0.0,9.1,96.0,11.6,'11111222,11111222,11111222' 
TCOON,ioos:station:TCOON:068:1,2010-07-02T03:00:00Z,27.2970,-97.4049,0.0,9.8,86.0,10.9,'11111222,11111222,11111222' 
TCOON,ioos:station:TCOON:068:1,2010-07-02T04:00:00Z,27.2970,-97.4049,0.0,9.6,95.0,11.6,'11111222,11111222,11111222' 
TCOON,ioos:station:TCOON:068:1,2010-07-02T05:00:00Z,27.2970,-97.4049,0.0,9.4,103.0,11.8,'11111222,11111222,11111222' 
TCOON,ioos:station:TCOON:068:1,2010-07-02T06:00:00Z,27.2970,-97.4049,0.0,8.5,109.0,10.7,'11111222,11111222,11111222' 
TCOON,ioos:station:TCOON:068:1,2010-07-02T07:00:00Z,27.2970,-97.4049,0.0,10.1,115.0,13.0,'11111222,11111222,11111222' 
TCOON,ioos:station:TCOON:068:1,2010-07-02T08:00:00Z,27.2970,-97.4049,0.0,8.7,113.0,11.7,'11111222,11111222,11111222' 
TCOON,ioos:station:TCOON:068:1,2010-07-02T09:00:00Z,27.2970,-97.4049,0.0,8.2,116.0,10.4,'11111222,11111222,11111222' 
TCOON,ioos:station:TCOON:068:1,2010-07-02T10:00:00Z,27.2970,-97.4049,0.0,7.5,109.0,9.1,'11111222,11111222,11111222' 
TCOON,ioos:station:TCOON:068:1,2010-07-02T11:00:00Z,27.2970,-97.4049,0.0,8.4,114.0,10.7,'11111222,11111222,11111222' 
TCOON,ioos:station:TCOON:068:1,2010-07-02T12:00:00Z,27.2970,-97.4049,0.0,8.7,106.0,10.3,'11111222,11111222,11111222' 
TCOON,ioos:station:TCOON:068:1,2010-07-02T13:00:00Z,27.2970,-97.4049,0.0,7.9,102.0,9.3,'11111222,11111222,11111222' 
TCOON,ioos:station:TCOON:068:1,2010-07-02T14:00:00Z,27.2970,-97.4049,0.0,8.3,110.0,11.1,'11111222,11111222,11111222' 
TCOON,ioos:station:TCOON:068:1,2010-07-02T16:00:00Z,27.2970,-97.4049,0.0,9.7,121.0,11.8,'11111222,11111222,11111222' 
TCOON,ioos:station:TCOON:068:1,2010-07-02T17:00:00Z,27.2970,-97.4049,0.0,8.7,121.0,10.4,'11111222,11111222,11111222' 
TCOON,ioos:station:TCOON:068:1,2010-07-02T18:00:00Z,27.2970,-97.4049,0.0,9.9,128.0,16.0,'11111222,11111222,11111222' 
TCOON,ioos:station:TCOON:068:1,2010-07-02T19:00:00Z,27.2970,-97.4049,0.0,9.6,119.0,11.7,'11111222,11111222,11111222' 
TCOON,ioos:station:TCOON:068:1,2010-07-02T20:00:00Z,27.2970,-97.4049,0.0,9.4,126.0,12.2,'11111222,11111222,11111222' 
TCOON,ioos:station:TCOON:068:1,2010-07-02T21:00:00Z,27.2970,-97.4049,0.0,9.0,113.0,11.5,'11111222,11111222,11111222' 
TCOON,ioos:station:TCOON:068:1,2010-07-02T22:00:00Z,27.2970,-97.4049,0.0,8.0,117.0,10.5,'11111222,11111222,11111222' 
TCOON,ioos:station:TCOON:068:1,2010-07-02T23:00:00Z,27.2970,-97.4049,0.0,9.4,117.0,11.8,'11111222,11111222,11111222' 
TCOON,ioos:station:TCOON:068:1,2010-07-03T00:00:00Z,27.2970,-97.4049,0.0,9.2,112.0,11.1,'11111222,11111222,11111222' 
TCOON,ioos:station:TCOON:068:1,2010-07-03T01:00:00Z,27.2970,-97.4049,0.0,9.4,113.0,11.6,'11111222,11111222,11111222' 
TCOON,ioos:station:TCOON:068:1,2010-07-03T02:00:00Z,27.2970,-97.4049,0.0,9.0,117.0,10.8,'11111222,11111222,11111222' 
TCOON,ioos:station:TCOON:068:1,2010-07-03T05:00:00Z,27.2970,-97.4049,0.0,8.8,121.0,10.5,'11111222,11111222,11111222' 
TCOON,ioos:station:TCOON:068:1,2010-07-03T07:00:00Z,27.2970,-97.4049,0.0,8.8,127.0,11.3,'11111222,11111222,11111222' 
TCOON,ioos:station:TCOON:068:1,2010-07-03T08:00:00Z,27.2970,-97.4049,0.0,8.3,131.0,10.4,'11111222,11111222,11111222' 
TCOON,ioos:station:TCOON:068:1,2010-07-03T10:00:00Z,27.2970,-97.4049,0.0,7.9,122.0,9.7,'11111222,11111222,11111222' 
TCOON,ioos:station:TCOON:068:1,2010-07-03T11:00:00Z,27.2970,-97.4049,0.0,8.1,125.0,10.1,'11111222,11111222,11111222' 
TCOON,ioos:station:TCOON:068:1,2010-07-03T12:00:00Z,27.2970,-97.4049,0.0,8.4,121.0,10.1,'11111222,11111222,11111222' 
TCOON,ioos:station:TCOON:068:1,2010-07-03T13:00:00Z,27.2970,-97.4049,0.0,8.0,125.0,10.8,'11111222,11111222,11111222' 
TCOON,ioos:station:TCOON:068:1,2010-07-03T16:00:00Z,27.2970,-97.4049,0.0,7.9,121.0,9.4,'11111222,11111222,11111222' 
TCOON,ioos:station:TCOON:068:1,2010-07-03T17:00:00Z,27.2970,-97.4049,0.0,7.7,122.0,9.4,'11111222,11111222,11111222' 
TCOON,ioos:station:TCOON:068:1,2010-07-03T19:00:00Z,27.2970,-97.4049,0.0,8.7,118.0,11.1,'11111222,11111222,11111222' 
TCOON,ioos:station:TCOON:068:1,2010-07-03T20:00:00Z,27.2970,-97.4049,0.0,8.3,111.0,11.3,'11111222,11111222,11111222' 
TCOON,ioos:station:TCOON:068:1,2010-07-03T21:00:00Z,27.2970,-97.4049,0.0,8.6,118.0,10.6,'11111222,11111222,11111222' 
TCOON,ioos:station:TCOON:068:1,2010-07-03T22:00:00Z,27.2970,-97.4049,0.0,9.2,113.0,11.3,'11111222,11111222,11111222' 
TCOON,ioos:station:TCOON:068:1,2010-07-03T23:00:00Z,27.2970,-97.4049,0.0,8.5,117.0,10.2,'11111222,11111222,11111222' 
TCOON,ioos:station:TCOON:068:1,2010-07-04T00:00:00Z,27.2970,-97.4049,0.0,8.1,107.0,10.4,'11111222,11111222,11111222' 
TCOON,ioos:station:TCOON:068:1,2010-07-04T01:00:00Z,27.2970,-97.4049,0.0,8.5,110.0,10.6,'11111222,11111222,11111222' 
TCOON,ioos:station:TCOON:068:1,2010-07-04T02:00:00Z,27.2970,-97.4049,0.0,9.2,106.0,10.8,'11111222,11111222,11111222' 
TCOON,ioos:station:TCOON:068:1,2010-07-04T03:00:00Z,27.2970,-97.4049,0.0,7.8,117.0,9.7,'11111222,11111222,11111222' 
TCOON,ioos:station:TCOON:068:1,2010-07-04T04:00:00Z,27.2970,-97.4049,0.0,7.3,114.0,9.4,'11111222,11111222,11111222' 
TCOON,ioos:station:TCOON:068:1,2010-07-04T05:00:00Z,27.2970,-97.4049,0.0,8.2,119.0,10.3,'11111222,11111222,11111222' 
TCOON,ioos:station:TCOON:068:1,2010-07-04T06:00:00Z,27.2970,-97.4049,0.0,8.6,122.0,10.5,'11111222,11111222,11111222' 
TCOON,ioos:station:TCOON:068:1,2010-07-04T07:00:00Z,27.2970,-97.4049,0.0,9.8,121.0,12.1,'11111222,11111222,11111222' 
TCOON,ioos:station:TCOON:068:1,2010-07-04T08:00:00Z,27.2970,-97.4049,0.0,8.9,134.0,11.5,'11111222,11111222,11111222' 
TCOON,ioos:station:TCOON:068:1,2010-07-04T09:00:00Z,27.2970,-97.4049,0.0,7.9,135.0,9.6,'11111222,11111222,11111222' 
TCOON,ioos:station:TCOON:068:1,2010-07-04T10:00:00Z,27.2970,-97.4049,0.0,7.3,135.0,8.7,'11111222,11111222,11111222' 
TCOON,ioos:station:TCOON:068:1,2010-07-04T11:00:00Z,27.2970,-97.4049,0.0,7.6,130.0,9.6,'11111222,11111222,11111222' 
TCOON,ioos:station:TCOON:068:1,2010-07-04T12:00:00Z,27.2970,-97.4049,0.0,7.6,134.0,9.3,'11111222,11111222,11111222' 
TCOON,ioos:station:TCOON:068:1,2010-07-04T13:00:00Z,27.2970,-97.4049,0.0,8.2,137.0,10.5,'11111222,11111222,11111222' 
TCOON,ioos:station:TCOON:068:1,2010-07-04T14:00:00Z,27.2970,-97.4049,0.0,7.3,135.0,9.5,'11111222,11111222,11111222' 
TCOON,ioos:station:TCOON:068:1,2010-07-04T15:00:00Z,27.2970,-97.4049,0.0,7.3,132.0,9.2,'11111222,11111222,11111222' 
TCOON,ioos:station:TCOON:068:1,2010-07-04T16:00:00Z,27.2970,-97.4049,0.0,8.7,119.0,11.3,'11111222,11111222,11111222' 
TCOON,ioos:station:TCOON:068:1,2010-07-04T17:00:00Z,27.2970,-97.4049,0.0,7.9,121.0,10.1,'11111222,11111222,11111222' 
TCOON,ioos:station:TCOON:068:1,2010-07-04T18:00:00Z,27.2970,-97.4049,0.0,8.3,122.0,9.8,'11111222,11111222,11111222' 
TCOON,ioos:station:TCOON:068:1,2010-07-04T19:00:00Z,27.2970,-97.4049,0.0,7.9,120.0,9.9,'11111222,11111222,11111222' 
TCOON,ioos:station:TCOON:068:1,2010-07-04T20:00:00Z,27.2970,-97.4049,0.0,7.7,121.0,9.4,'11111222,11111222,11111222' 
TCOON,ioos:station:TCOON:068:1,2010-07-04T21:00:00Z,27.2970,-97.4049,0.0,7.6,114.0,9.4,'11111222,11111222,11111222' 
TCOON,ioos:station:TCOON:068:1,2010-07-04T22:00:00Z,27.2970,-97.4049,0.0,6.9,117.0,9.2,'11111222,11111222,11111222' 
TCOON,ioos:station:TCOON:068:1,2010-07-04T23:00:00Z,27.2970,-97.4049,0.0,7.9,116.0,16.0,'11111222,11111222,11111222' 
TCOON,ioos:station:TCOON:068:1,2010-07-05T00:00:00Z,27.2970,-97.4049,0.0,6.7,117.0,9.2,'11111222,11111222,11111222' 
TCOON,ioos:station:TCOON:068:1,2010-07-05T01:00:00Z,27.2970,-97.4049,0.0,7.4,107.0,8.9,'11111222,11111222,11111222' 
TCOON,ioos:station:TCOON:068:1,2010-07-05T02:00:00Z,27.2970,-97.4049,0.0,7.7,103.0,9.1,'11111222,11111222,11111222' 
TCOON,ioos:station:TCOON:068:1,2010-07-05T03:00:00Z,27.2970,-97.4049,0.0,7.5,119.0,9.7,'11111222,11111222,11111222' 
TCOON,ioos:station:TCOON:068:1,2010-07-05T04:00:00Z,27.2970,-97.4049,0.0,8.2,114.0,10.1,'11111222,11111222,11111222' 
TCOON,ioos:station:TCOON:068:1,2010-07-05T05:00:00Z,27.2970,-97.4049,0.0,8.3,119.0,10.0,'11111222,11111222,11111222' 
TCOON,ioos:station:TCOON:068:1,2010-07-05T06:00:00Z,27.2970,-97.4049,0.0,8.6,124.0,10.4,'11111222,11111222,11111222' 
TCOON,ioos:station:TCOON:068:1,2010-07-05T07:00:00Z,27.2970,-97.4049,0.0,8.2,132.0,10.3,'11111222,11111222,11111222' 
TCOON,ioos:station:TCOON:068:1,2010-07-05T08:00:00Z,27.2970,-97.4049,0.0,9.1,133.0,11.1,'11111222,11111222,11111222' 
TCOON,ioos:station:TCOON:068:1,2010-07-05T09:00:00Z,27.2970,-97.4049,0.0,9.1,140.0,11.7,'11111222,11111222,11111222' 
TCOON,ioos:station:TCOON:068:1,2010-07-05T10:00:00Z,27.2970,-97.4049,0.0,8.4,140.0,11.2,'11111222,11111222,11111222' 
TCOON,ioos:station:TCOON:068:1,2010-07-05T11:00:00Z,27.2970,-97.4049,0.0,6.2,136.0,8.4,'11111222,11111222,11111222' 
TCOON,ioos:station:TCOON:068:1,2010-07-05T12:00:00Z,27.2970,-97.4049,0.0,6.3,133.0,7.9,'11111222,11111222,11111222' 
TCOON,ioos:station:TCOON:068:1,2010-07-05T13:00:00Z,27.2970,-97.4049,0.0,5.4,136.0,6.6,'11111222,11111222,11111222' 
TCOON,ioos:station:TCOON:068:1,2010-07-05T14:00:00Z,27.2970,-97.4049,0.0,6.0,134.0,99.0,'11111222,11111222,11144222' 
TCOON,ioos:station:TCOON:068:1,2010-07-05T15:00:00Z,27.2970,-97.4049,0.0,6.5,130.0,8.1,'11111222,11111222,11111222' 
TCOON,ioos:station:TCOON:068:1,2010-07-05T16:00:00Z,27.2970,-97.4049,0.0,7.2,124.0,28.6,'11111222,11111222,11111222' 
TCOON,ioos:station:TCOON:068:1,2010-07-05T17:00:00Z,27.2970,-97.4049,0.0,6.7,121.0,8.0,'11111222,11111222,11111222' 
TCOON,ioos:station:TCOON:068:1,2010-07-05T18:00:00Z,27.2970,-97.4049,0.0,6.9,110.0,8.6,'11111222,11111222,11111222' 
TCOON,ioos:station:TCOON:068:1,2010-07-05T19:00:00Z,27.2970,-97.4049,0.0,6.2,103.0,8.6,'11111222,11111222,11111222' 
TCOON,ioos:station:TCOON:068:1,2010-07-05T20:00:00Z,27.2970,-97.4049,0.0,6.7,104.0,8.7,'11111222,11111222,11111222' 
TCOON,ioos:station:TCOON:068:1,2010-07-05T21:00:00Z,27.2970,-97.4049,0.0,7.4,95.0,8.8,'11111222,11111222,11111222' 
TCOON,ioos:station:TCOON:068:1,2010-07-05T22:00:00Z,27.2970,-97.4049,0.0,7.2,93.0,9.0,'11111222,11111222,11111222' 
TCOON,ioos:station:TCOON:068:1,2010-07-05T23:00:00Z,27.2970,-97.4049,0.0,6.2,99.0,7.3,'11111222,11111222,11111222' 
TCOON,ioos:station:TCOON:068:1,2010-07-06T00:00:00Z,27.2970,-97.4049,0.0,8.2,101.0,9.9,'11111222,11111222,11111222' 
TCOON,ioos:station:TCOON:068:1,2010-07-06T01:00:00Z,27.2970,-97.4049,0.0,7.8,94.0,9.6,'11111222,11111222,11111222' 
TCOON,ioos:station:TCOON:068:1,2010-07-06T02:00:00Z,27.2970,-97.4049,0.0,6.3,96.0,7.2,'11111222,11111222,11111222' 
TCOON,ioos:station:TCOON:068:1,2010-07-06T03:00:00Z,27.2970,-97.4049,0.0,5.8,101.0,7.8,'11111222,11111222,11111222' 
TCOON,ioos:station:TCOON:068:1,2010-07-06T04:00:00Z,27.2970,-97.4049,0.0,7.2,97.0,8.5,'11111222,11111222,11111222' 
TCOON,ioos:station:TCOON:068:1,2010-07-06T05:00:00Z,27.2970,-97.4049,0.0,6.7,100.0,7.8,'11111222,11111222,11111222' 
TCOON,ioos:station:TCOON:068:1,2010-07-06T06:00:00Z,27.2970,-97.4049,0.0,5.9,116.0,22.2,'11111222,11111222,11111222' 
TCOON,ioos:station:TCOON:068:1,2010-07-06T07:00:00Z,27.2970,-97.4049,0.0,6.2,126.0,7.6,'11111222,11111222,11111222' 
TCOON,ioos:station:TCOON:068:1,2010-07-06T08:00:00Z,27.2970,-97.4049,0.0,5.3,128.0,6.2,'11111222,11111222,11111222' 
TCOON,ioos:station:TCOON:068:1,2010-07-06T09:00:00Z,27.2970,-97.4049,0.0,5.1,124.0,6.2,'11111222,11111222,11111222' 
TCOON,ioos:station:TCOON:068:1,2010-07-06T10:00:00Z,27.2970,-97.4049,0.0,4.8,128.0,6.0,'11111222,11111222,11111222' 
TCOON,ioos:station:TCOON:068:1,2010-07-06T11:00:00Z,27.2970,-97.4049,0.0,3.9,128.0,4.5,'11111222,11111222,11111222' 
TCOON,ioos:station:TCOON:068:1,2010-07-06T12:00:00Z,27.2970,-97.4049,0.0,3.5,123.0,4.1,'11111222,11111222,11111222' 
TCOON,ioos:station:TCOON:068:1,2010-07-06T13:00:00Z,27.2970,-97.4049,0.0,2.4,107.0,3.3,'11111222,11111222,11111222' 
TCOON,ioos:station:TCOON:068:1,2010-07-06T14:00:00Z,27.2970,-97.4049,0.0,3.5,98.0,4.1,'11111222,11111222,11111222' 
TCOON,ioos:station:TCOON:068:1,2010-07-06T15:00:00Z,27.2970,-97.4049,0.0,4.0,96.0,4.5,'11111222,11111222,11111222' 
TCOON,ioos:station:TCOON:068:1,2010-07-06T16:00:00Z,27.2970,-97.4049,0.0,4.3,90.0,5.3,'11111222,11111222,11111222' 
TCOON,ioos:station:TCOON:068:1,2010-07-06T17:00:00Z,27.2970,-97.4049,0.0,4.0,86.0,5.0,'11111222,11111222,11111222' 
TCOON,ioos:station:TCOON:068:1,2010-07-06T18:00:00Z,27.2970,-97.4049,0.0,4.8,91.0,5.5,'11111222,11111222,11111222' 
TCOON,ioos:station:TCOON:068:1,2010-07-06T19:00:00Z,27.2970,-97.4049,0.0,5.2,81.0,6.6,'11111222,11111222,11111222' 
TCOON,ioos:station:TCOON:068:1,2010-07-06T20:00:00Z,27.2970,-97.4049,0.0,4.8,77.0,5.8,'11111222,11111222,11111222' 
TCOON,ioos:station:TCOON:068:1,2010-07-06T21:00:00Z,27.2970,-97.4049,0.0,6.1,81.0,7.7,'11111222,11111222,11111222' 
TCOON,ioos:station:TCOON:068:1,2010-07-06T22:00:00Z,27.2970,-97.4049,0.0,7.1,68.0,8.0,'11111222,11111222,11111222' 
TCOON,ioos:station:TCOON:068:1,2010-07-06T23:00:00Z,27.2970,-97.4049,0.0,6.0,65.0,7.3,'11111222,11111222,11111222' 
TCOON,ioos:station:TCOON:068:1,2010-07-07T00:00:00Z,27.2970,-97.4049,0.0,6.4,72.0,7.4,'11111222,11111222,11111222' 
TCOON,ioos:station:TCOON:068:1,2010-07-07T01:00:00Z,27.2970,-97.4049,0.0,5.3,74.0,6.4,'11111222,11111222,11111222' 
TCOON,ioos:station:TCOON:068:1,2010-07-07T02:00:00Z,27.2970,-97.4049,0.0,6.1,91.0,7.2,'11111222,11111222,11111222' 
TCOON,ioos:station:TCOON:068:1,2010-07-07T03:00:00Z,27.2970,-97.4049,0.0,6.3,91.0,7.2,'11111222,11111222,11111222' 
TCOON,ioos:station:TCOON:068:1,2010-07-07T04:00:00Z,27.2970,-97.4049,0.0,5.9,97.0,6.8,'11111222,11111222,11111222' 
TCOON,ioos:station:TCOON:068:1,2010-07-07T05:00:00Z,27.2970,-97.4049,0.0,4.5,101.0,5.4,'11111222,11111222,11111222' 
TCOON,ioos:station:TCOON:068:1,2010-07-07T06:00:00Z,27.2970,-97.4049,0.0,4.4,108.0,5.2,'11111222,11111222,11111222' 
TCOON,ioos:station:TCOON:068:1,2010-07-07T07:00:00Z,27.2970,-97.4049,0.0,3.0,123.0,3.4,'11111222,11111222,11111222' 
TCOON,ioos:station:TCOON:068:1,2010-07-07T08:00:00Z,27.2970,-97.4049,0.0,2.1,126.0,2.6,'11111222,11111222,11111222' 
TCOON,ioos:station:TCOON:068:1,2010-07-07T09:00:00Z,27.2970,-97.4049,0.0,1.3,121.0,1.6,'11111222,11111222,11111222' 
TCOON,ioos:station:TCOON:068:1,2010-07-07T10:00:00Z,27.2970,-97.4049,0.0,1.0,86.0,1.2,'11111222,11111222,11111222' 
TCOON,ioos:station:TCOON:068:1,2010-07-07T11:00:00Z,27.2970,-97.4049,0.0,2.5,340.0,2.6,'11111222,11111222,11111222' 
TCOON,ioos:station:TCOON:068:1,2010-07-07T12:00:00Z,27.2970,-97.4049,0.0,4.2,339.0,4.5,'11111222,11111222,11111222' 
TCOON,ioos:station:TCOON:068:1,2010-07-07T13:00:00Z,27.2970,-97.4049,0.0,4.4,330.0,5.1,'11111222,11111222,11111222' 
TCOON,ioos:station:TCOON:068:1,2010-07-07T14:00:00Z,27.2970,-97.4049,0.0,5.1,338.0,5.6,'11111222,11111222,11111222' 
TCOON,ioos:station:TCOON:068:1,2010-07-07T15:00:00Z,27.2970,-97.4049,0.0,6.2,344.0,7.1,'11111222,11111222,11111222' 
TCOON,ioos:station:TCOON:068:1,2010-07-07T16:00:00Z,27.2970,-97.4049,0.0,5.9,14.0,7.2,'11111222,11111222,11111222' 
TCOON,ioos:station:TCOON:068:1,2010-07-07T17:00:00Z,27.2970,-97.4049,0.0,6.5,11.0,25.0,'11111222,11111222,11111222' 
TCOON,ioos:station:TCOON:068:1,2010-07-07T18:00:00Z,27.2970,-97.4049,0.0,6.6,9.0,8.0,'11111222,11111222,11111222' 
TCOON,ioos:station:TCOON:068:1,2010-07-07T19:00:00Z,27.2970,-97.4049,0.0,7.2,360.0,8.1,'11111222,11144222,11111222' 
TCOON,ioos:station:TCOON:068:1,2010-07-07T20:00:00Z,27.2970,-97.4049,0.0,7.6,43.0,8.8,'11111222,11111222,11111222' 
TCOON,ioos:station:TCOON:068:1,2010-07-07T21:00:00Z,27.2970,-97.4049,0.0,7.8,39.0,9.9,'11111222,11111222,11111222' 
TCOON,ioos:station:TCOON:068:1,2010-07-07T22:00:00Z,27.2970,-97.4049,0.0,10.5,37.0,12.1,'11111222,11111222,11111222' 
TCOON,ioos:station:TCOON:068:1,2010-07-07T23:00:00Z,27.2970,-97.4049,0.0,12.7,38.0,14.6,'11111222,11111222,11111222' 
TCOON,ioos:station:TCOON:068:1,2010-07-08T00:00:00Z,27.2970,-97.4049,0.0,8.7,33.0,10.0,'11111222,11111222,11111222' 
TCOON,ioos:station:TCOON:068:1,2010-07-08T01:00:00Z,27.2970,-97.4049,0.0,8.4,45.0,9.7,'11111222,11111222,11111222' 
TCOON,ioos:station:TCOON:068:1,2010-07-08T02:00:00Z,27.2970,-97.4049,0.0,7.2,45.0,8.6,'11111222,11111222,11111222' 
TCOON,ioos:station:TCOON:068:1,2010-07-08T03:00:00Z,27.2970,-97.4049,0.0,6.0,43.0,7.2,'11111222,11111222,11111222' 
TCOON,ioos:station:TCOON:068:1,2010-07-08T04:00:00Z,27.2970,-97.4049,0.0,5.8,65.0,6.9,'11111222,11111222,11111222' 
TCOON,ioos:station:TCOON:068:1,2010-07-08T05:00:00Z,27.2970,-97.4049,0.0,7.2,48.0,8.8,'11111222,11111222,11111222' 
TCOON,ioos:station:TCOON:068:1,2010-07-08T06:00:00Z,27.2970,-97.4049,0.0,6.7,63.0,7.7,'11111222,11111222,11111222' 
TCOON,ioos:station:TCOON:068:1,2010-07-08T07:00:00Z,27.2970,-97.4049,0.0,4.7,52.0,5.2,'11111222,11111222,11111222' 
TCOON,ioos:station:TCOON:068:1,2010-07-08T08:00:00Z,27.2970,-97.4049,0.0,5.4,55.0,6.4,'11111222,11111222,11111222' 
TCOON,ioos:station:TCOON:068:1,2010-07-08T09:00:00Z,27.2970,-97.4049,0.0,4.4,58.0,5.0,'11111222,11111222,11111222' 
TCOON,ioos:station:TCOON:068:1,2010-07-08T10:00:00Z,27.2970,-97.4049,0.0,1.7,22.0,2.0,'11111222,11111222,11111222' 
TCOON,ioos:station:TCOON:068:1,2010-07-08T11:00:00Z,27.2970,-97.4049,0.0,4.1,38.0,4.9,'11111222,11111222,11111222' 
TCOON,ioos:station:TCOON:068:1,2010-07-08T12:00:00Z,27.2970,-97.4049,0.0,4.3,65.0,5.0,'11111222,11111222,11111222' 
TCOON,ioos:station:TCOON:068:1,2010-07-08T13:00:00Z,27.2970,-97.4049,0.0,2.5,80.0,3.1,'11111222,11111222,11111222' 
TCOON,ioos:station:TCOON:068:1,2010-07-08T14:00:00Z,27.2970,-97.4049,0.0,6.4,67.0,7.2,'11111222,11111222,11111222' 
TCOON,ioos:station:TCOON:068:1,2010-07-08T15:00:00Z,27.2970,-97.4049,0.0,8.8,78.0,10.9,'11111222,11111222,11111222' 
TCOON,ioos:station:TCOON:068:1,2010-07-08T16:00:00Z,27.2970,-97.4049,0.0,9.7,81.0,11.4,'11111222,11111222,11111222' 
TCOON,ioos:station:TCOON:068:1,2010-07-08T17:00:00Z,27.2970,-97.4049,0.0,10.2,73.0,12.1,'11111222,11111222,11111222' 
TCOON,ioos:station:TCOON:068:1,2010-07-08T18:00:00Z,27.2970,-97.4049,0.0,11.3,82.0,12.8,'11111222,11111222,11111222' 
TCOON,ioos:station:TCOON:068:1,2010-07-08T19:00:00Z,27.2970,-97.4049,0.0,12.5,88.0,14.5,'11111222,11111222,11111222' 
TCOON,ioos:station:TCOON:068:1,2010-07-08T21:00:00Z,27.2970,-97.4049,0.0,10.1,92.0,11.5,'11111222,11111222,11111222' 
TCOON,ioos:station:TCOON:068:1,2010-07-08T22:00:00Z,27.2970,-97.4049,0.0,10.6,103.0,13.5,'11111222,11111222,11111222' 
TCOON,ioos:station:TCOON:068:1,2010-07-08T23:00:00Z,27.2970,-97.4049,0.0,10.2,100.0,12.4,'11111222,11111222,11111222' 
TCOON,ioos:station:TCOON:068:1,2010-07-09T00:00:00Z,27.2970,-97.4049,0.0,14.2,121.0,33.4,'11111222,11111222,11111222' 
TCOON,ioos:station:TCOON:068:1,2010-07-09T01:00:00Z,27.2970,-97.4049,0.0,9.8,103.0,12.3,'11111222,11111222,11111222' 
TCOON,ioos:station:TCOON:068:1,2010-07-09T02:00:00Z,27.2970,-97.4049,0.0,7.6,107.0,9.7,'11111222,11111222,11111222' 
TCOON,ioos:station:TCOON:068:1,2010-07-09T03:00:00Z,27.2970,-97.4049,0.0,9.3,99.0,11.5,'11111222,11111222,11111222' 
TCOON,ioos:station:TCOON:068:1,2010-07-09T04:00:00Z,27.2970,-97.4049,0.0,7.5,104.0,9.4,'11111222,11111222,11111222' 
TCOON,ioos:station:TCOON:068:1,2010-07-09T05:00:00Z,27.2970,-97.4049,0.0,8.6,106.0,9.8,'11111222,11111222,11111222' 
TCOON,ioos:station:TCOON:068:1,2010-07-09T06:00:00Z,27.2970,-97.4049,0.0,8.4,114.0,10.1,'11111222,11111222,11111222' 
TCOON,ioos:station:TCOON:068:1,2010-07-09T07:00:00Z,27.2970,-97.4049,0.0,7.5,116.0,28.6,'11111222,11111222,11111222' 
TCOON,ioos:station:TCOON:068:1,2010-07-09T08:00:00Z,27.2970,-97.4049,0.0,6.9,115.0,12.5,'11111222,11111222,11111222' 
TCOON,ioos:station:TCOON:068:1,2010-07-09T09:00:00Z,27.2970,-97.4049,0.0,9.2,115.0,11.5,'11111222,11111222,11111222' 
TCOON,ioos:station:TCOON:068:1,2010-07-09T10:00:00Z,27.2970,-97.4049,0.0,8.9,113.0,12.3,'11111222,11111222,11111222' 
TCOON,ioos:station:TCOON:068:1,2010-07-09T11:00:00Z,27.2970,-97.4049,0.0,9.5,110.0,12.0,'11111222,11111222,11111222' 
TCOON,ioos:station:TCOON:068:1,2010-07-09T12:00:00Z,27.2970,-97.4049,0.0,10.3,114.0,12.6,'11111222,11111222,11111222' 
TCOON,ioos:station:TCOON:068:1,2010-07-09T13:00:00Z,27.2970,-97.4049,0.0,6.8,105.0,8.7,'11111222,11111222,11111222' 
TCOON,ioos:station:TCOON:068:1,2010-07-09T14:00:00Z,27.2970,-97.4049,0.0,8.9,112.0,12.3,'11111222,11111222,11111222' 
TCOON,ioos:station:TCOON:068:1,2010-07-09T15:00:00Z,27.2970,-97.4049,0.0,8.8,110.0,11.2,'11111222,11111222,11111222' 
TCOON,ioos:station:TCOON:068:1,2010-07-09T16:00:00Z,27.2970,-97.4049,0.0,9.1,117.0,11.0,'11111222,11111222,11111222' 
TCOON,ioos:station:TCOON:068:1,2010-07-09T19:00:00Z,27.2970,-97.4049,0.0,9.4,116.0,11.4,'11111222,11111222,11111222' 
TCOON,ioos:station:TCOON:068:1,2010-07-09T20:00:00Z,27.2970,-97.4049,0.0,8.5,110.0,10.6,'11111222,11111222,11111222' 
TCOON,ioos:station:TCOON:068:1,2010-07-09T21:00:00Z,27.2970,-97.4049,0.0,7.4,108.0,9.1,'11111222,11111222,11111222' 
TCOON,ioos:station:TCOON:068:1,2010-07-09T22:00:00Z,27.2970,-97.4049,0.0,8.3,102.0,9.6,'11111222,11111222,11111222' 